North Wilkesboro, NC

10:27 PM EST on December 10, 2017 (GMT -0500)
Wilkes County

Weather History for KUKF - May, 2013

Change the Weather History Date:

Sunday, May 26, 2013

  Actual Average Record
Temperature  
Mean Temperature 62 °F -  
Max Temperature 73 °F 79 °F 91 °F (1962)
Min Temperature 51 °F 54 °F 38 °F (1988)
Degree Days  
Heating Degree Days 3    
Growing Degree Days 12 (Base 50)    
Moisture  
Dew Point 47 °F    
Average Humidity 63    
Maximum Humidity 88    
Minimum Humidity 41    
Precipitation  
Precipitation 0.00 in - - ()
Sea Level Pressure  
Sea Level Pressure 30.28 in    
Wind  
Wind Speed 1 mph (South)    
Max Wind Speed 6 mph    
Max Gust Speed -    
Visibility 10 miles    
Events Rain    
Averages and records for this station are not official NWS values.
T = Trace of Precipitation, MM = Missing Value Source: NWS Daily Summary

Daily Weather History Graph

Daily Weather History Graph

Search for Another Location

Airport or City:

Trip Planner

Search our weather history database for the weather conditions in past years. The results will help you decide how hot, cold, wet, or windy it might be!

Date:

Astronomy

May. 26, 2013 Rise Set
Actual Time 6:10 AM EDT 8:32 PM EDT
Civil Twilight 5:41 AM EDT 9:02 PM EDT
Nautical Twilight 5:05 AM EDT 9:38 PM EDT
Astronomical Twilight 4:25 AM EDT 10:18 PM EDT
Moon 10:19 PM EDT (5/26) 7:38 AM EDT (5/26)
Length of Visible Light 15h 20m
Length of Day
14h 21m
Waning Gibbous, 97% of the Moon is Illuminated
May 26
Waning Gibbous
May 31
Last Quarter
Jun 8
New
Jun 16
First Quarter
Jun 23
Full

Hourly Weather History & Observations

Time (EDT) Temp. Dew Point Humidity Pressure Visibility Wind Dir Wind Speed Gust Speed Precip Events Conditions
12:15 AM 55.4 °F 35.6 °F 47% 30.28 in 10.0 mi Calm Calm - N/A   Overcast
12:35 AM 53.6 °F 37.4 °F 54% 30.28 in 10.0 mi NNW 3.5 mph - N/A   Overcast
12:55 AM 55.4 °F 35.6 °F 47% 30.28 in 10.0 mi NNW 3.5 mph - N/A   Overcast
1:15 AM 55.4 °F 35.6 °F 47% 30.28 in 10.0 mi Calm Calm - N/A   Overcast
1:35 AM 55.4 °F 37.4 °F 51% 30.27 in 10.0 mi Calm Calm - N/A   Overcast
1:55 AM 53.6 °F 42.8 °F 67% 30.27 in 10.0 mi Calm Calm - N/A   Overcast
2:15 AM 51.8 °F 48.2 °F 88% 30.27 in 10.0 mi Calm Calm - N/A   Overcast
2:35 AM 53.6 °F 42.8 °F 67% 30.27 in 10.0 mi Calm Calm - N/A   Overcast
2:55 AM 51.8 °F 44.6 °F 76% 30.27 in 10.0 mi Calm Calm - N/A   Overcast
3:15 AM 51.8 °F 42.8 °F 71% 30.27 in 10.0 mi Calm Calm - N/A   Overcast
3:35 AM 53.6 °F 42.8 °F 67% 30.27 in 10.0 mi Calm Calm - N/A   Mostly Cloudy
3:55 AM 53.6 °F 42.8 °F 67% 30.27 in 10.0 mi Calm Calm - N/A   Overcast
4:15 AM 51.8 °F 42.8 °F 71% 30.28 in 10.0 mi Calm Calm - N/A   Overcast
4:35 AM 51.8 °F 42.8 °F 71% 30.28 in 10.0 mi Calm Calm - N/A   Overcast
4:55 AM 51.8 °F 42.8 °F 71% 30.28 in 10.0 mi Calm Calm - N/A   Overcast
5:15 AM 53.6 °F 42.8 °F 67% 30.29 in 10.0 mi Calm Calm - N/A   Overcast
5:35 AM 51.8 °F 42.8 °F 71% 30.29 in 10.0 mi Calm Calm - N/A   Overcast
5:55 AM 51.8 °F 46.4 °F 82% 30.30 in 10.0 mi Calm Calm - N/A   Mostly Cloudy
6:15 AM 51.8 °F 44.6 °F 76% 30.30 in 10.0 mi ENE 5.8 mph - N/A Rain Light Rain
6:35 AM 51.8 °F 42.8 °F 71% 30.31 in 10.0 mi ENE 4.6 mph - N/A   Overcast
6:55 AM 51.8 °F 42.8 °F 71% 30.31 in 10.0 mi NE 3.5 mph - N/A   Overcast
7:15 AM 53.6 °F 44.6 °F 72% 30.31 in 10.0 mi NE 3.5 mph - N/A   Overcast
7:35 AM 51.8 °F 46.4 °F 82% 30.32 in 10.0 mi Calm Calm - N/A   Overcast
7:55 AM 51.8 °F 46.4 °F 82% 30.32 in 10.0 mi Calm Calm - N/A Rain Light Rain
8:15 AM 51.8 °F 46.4 °F 82% 30.32 in 10.0 mi Calm Calm - N/A   Overcast
8:35 AM 53.6 °F 46.4 °F 77% 30.33 in 10.0 mi Calm Calm - N/A   Overcast
8:55 AM 53.6 °F 46.4 °F 77% 30.34 in 10.0 mi Calm Calm - N/A   Overcast
9:15 AM 53.6 °F 48.2 °F 82% 30.34 in 10.0 mi Calm Calm - N/A   Overcast
9:35 AM 53.6 °F 48.2 °F 82% 30.35 in 10.0 mi Calm Calm - N/A   Overcast
9:55 AM 53.6 °F 46.4 °F 77% 30.35 in 10.0 mi Calm Calm - N/A   Overcast
10:15 AM 55.4 °F 44.6 °F 67% 30.35 in 10.0 mi Calm Calm - N/A   Overcast
10:35 AM 55.4 °F 44.6 °F 67% 30.35 in 10.0 mi Calm Calm - N/A   Overcast
10:55 AM 59.0 °F 42.8 °F 55% 30.33 in 10.0 mi Calm Calm - N/A   Overcast
11:15 AM 59.0 °F 44.6 °F 59% 30.34 in 10.0 mi South 3.5 mph - N/A   Overcast
11:35 AM 59.0 °F 44.6 °F 59% 30.34 in 10.0 mi Calm Calm - N/A   Overcast
11:55 AM 60.8 °F 46.4 °F 59% 30.32 in 10.0 mi Calm Calm - N/A   Mostly Cloudy
12:15 PM 62.6 °F 44.6 °F 52% 30.32 in 10.0 mi Calm Calm - N/A   Clear
12:35 PM 64.4 °F 46.4 °F 52% 30.32 in 10.0 mi Calm Calm - N/A   Clear
12:55 PM 64.4 °F 46.4 °F 52% 30.31 in 10.0 mi South 3.5 mph - N/A   Clear
1:15 PM 66.2 °F 44.6 °F 46% 30.30 in 10.0 mi Calm Calm - N/A   Clear
1:35 PM 68.0 °F 44.6 °F 43% 30.29 in 10.0 mi SSW 5.8 mph - N/A   Clear
1:55 PM 69.8 °F 46.4 °F 43% 30.27 in 10.0 mi Calm Calm - N/A   Clear
2:15 PM 69.8 °F 46.4 °F 43% 30.27 in 10.0 mi South 5.8 mph - N/A   Clear
2:35 PM 69.8 °F 46.4 °F 43% 30.26 in 10.0 mi SW 3.5 mph - N/A   Clear
2:55 PM 69.8 °F 46.4 °F 43% 30.26 in 10.0 mi Calm Calm - N/A   Clear
3:15 PM 71.6 °F 46.4 °F 41% 30.25 in 10.0 mi SE 3.5 mph - N/A   Clear
3:35 PM 73.4 °F 51.8 °F 47% 30.25 in 10.0 mi SW 3.5 mph - N/A   Clear
3:55 PM 73.4 °F 51.8 °F 47% 30.24 in 10.0 mi SW 4.6 mph - N/A   Clear
4:15 PM 69.8 °F 48.2 °F 46% 30.24 in 10.0 mi SSE 4.6 mph - N/A   Mostly Cloudy
4:35 PM 69.8 °F 51.8 °F 53% 30.24 in 10.0 mi Calm Calm - N/A   Overcast
4:55 PM 69.8 °F 51.8 °F 53% 30.23 in 10.0 mi South 3.5 mph - N/A   Mostly Cloudy
5:15 PM 71.6 °F 50.0 °F 46% 30.23 in 10.0 mi South 4.6 mph - N/A   Mostly Cloudy
5:35 PM 71.6 °F 48.2 °F 43% 30.23 in 10.0 mi SSE 3.5 mph - N/A   Overcast
5:55 PM 71.6 °F 46.4 °F 41% 30.23 in 10.0 mi Calm Calm - N/A   Overcast
6:15 PM 71.6 °F 48.2 °F 43% 30.23 in 10.0 mi Calm Calm - N/A   Overcast
6:35 PM 71.6 °F 50.0 °F 46% 30.23 in 10.0 mi Calm Calm - N/A   Overcast
6:55 PM 69.8 °F 51.8 °F 53% 30.23 in 10.0 mi Calm Calm - N/A   Overcast
7:15 PM 69.8 °F 55.4 °F 60% 30.24 in 10.0 mi Calm Calm - N/A   Overcast
7:35 PM 69.8 °F 55.4 °F 60% 30.24 in 10.0 mi Calm Calm - N/A   Overcast
7:55 PM 69.8 °F 55.4 °F 60% 30.25 in 10.0 mi Calm Calm - N/A   Overcast
8:15 PM 66.2 °F 53.6 °F 64% 30.25 in 10.0 mi Calm Calm - N/A   Overcast
8:35 PM 64.4 °F 53.6 °F 68% 30.26 in 10.0 mi SSW 3.5 mph - N/A   Scattered Clouds
8:55 PM 62.6 °F 53.6 °F 72% 30.26 in 10.0 mi Calm Calm - N/A   Clear
9:15 PM 60.8 °F 51.8 °F 72% 30.26 in 10.0 mi NNE 3.5 mph - N/A   Clear
9:35 PM 60.8 °F 51.8 °F 72% 30.26 in 10.0 mi Calm Calm - N/A   Clear
9:55 PM 59.0 °F 51.8 °F 77% 30.27 in 10.0 mi Calm Calm - N/A   Clear
10:15 PM 59.0 °F 51.8 °F 77% 30.27 in 10.0 mi Calm Calm - N/A   Clear
10:35 PM 59.0 °F 51.8 °F 77% 30.27 in 10.0 mi Calm Calm - N/A   Clear
10:55 PM 57.2 °F 51.8 °F 82% 30.27 in 10.0 mi Calm Calm - N/A   Clear
11:15 PM 57.2 °F 51.8 °F 82% 30.28 in 10.0 mi Calm Calm - N/A   Clear
11:35 PM 55.4 °F 51.8 °F 88% 30.28 in 10.0 mi Calm Calm - N/A   Clear
11:55 PM 55.4 °F 51.8 °F 88% 30.28 in 10.0 mi Calm Calm - N/A   Clear